Tracking 23752 objects as of 23-Oct-2021
HD Live streaming from Space Station
objects crossing your sky now

COSMOS 1375 DEB

Track COSMOS 1375 DEB now!
10-day predictions


NORAD ID: 16375
Int'l Code: 1982-055P
Perigee: 943.6 km
Apogee: 997.5 km
Inclination: 65.8 °
Period: 104.3 minutes
Semi major axis: 7341 km
RCS: 0.132 m2 (medium)
Launch date: June 6, 1982
Source: Commonwealth of Independent States (former USSR) (CIS)
Launch site: PLESETSK MISSILE AND SPACE COMPLEX (PKMTR)

Note: This is SATELLITE DEBRIS
aabbcc
Your satellite tracking list
Your tracking list is empty




NASA's NSSDC Master Catalog

Two Line Element Set (TLE):
1 16375U 82055P   21295.61330244 -.00000032  00000-0  47928-4 0  9994
2 16375  65.8365  24.5165 0036705 268.5373 194.1680 13.80128871813599
Source of the keplerian elements: AFSPC